Time,TemperatureF,DewpointF,PressureIn,WindDirection,WindDirectionDegrees,WindSpeedMPH,WindSpeedGustMPH,Humidity,HourlyPrecipIn,Conditions,Clouds,dailyrainin,SoftwareType,DateUTC
2013-01-13 00:03:00,54.0,53.0,30.08,North,0,0.0,0.0,98,0.00,,,0.01,,2013-01-13 05:03:00,
2013-01-13 00:12:00,54.0,53.0,30.08,North,0,0.0,0.0,98,0.00,,,0.01,,2013-01-13 05:12:00,
2013-01-13 00:22:00,53.0,52.0,30.08,North,0,0.0,0.0,97,0.00,,,0.01,,2013-01-13 05:22:00,
2013-01-13 00:32:00,53.0,52.0,30.08,North,0,0.0,0.0,98,0.00,,,0.01,,2013-01-13 05:32:00,
2013-01-13 00:42:00,53.0,52.0,30.08,North,0,0.0,0.0,98,0.00,,,0.01,,2013-01-13 05:42:00,
2013-01-13 00:53:00,53.0,52.0,30.08,North,0,0.0,0.0,98,0.00,,,0.01,,2013-01-13 05:53:00,
2013-01-13 01:03:00,54.0,53.0,30.08,North,0,0.0,0.0,98,0.00,,,0.01,,2013-01-13 06:03:00,
2013-01-13 01:12:00,55.0,54.0,30.08,North,0,0.0,2.0,98,0.00,,,0.01,,2013-01-13 06:12:00,
2013-01-13 01:22:00,55.0,54.0,30.08,North,0,0.0,2.0,98,0.00,,,0.01,,2013-01-13 06:22:00,
2013-01-13 01:32:00,55.0,54.0,30.08,North,0,0.0,0.0,98,0.00,,,0.01,,2013-01-13 06:32:00,
2013-01-13 01:42:00,55.0,54.0,30.08,North,0,0.0,0.0,98,0.00,,,0.01,,2013-01-13 06:42:00,
2013-01-13 01:52:00,55.0,54.0,30.07,North,0,0.0,1.0,98,0.00,,,0.01,,2013-01-13 06:52:00,
2013-01-13 02:02:00,56.0,55.0,30.08,North,0,0.0,0.0,98,0.00,,,0.01,,2013-01-13 07:02:00,
2013-01-13 02:12:00,56.0,55.0,30.08,North,0,0.0,0.0,98,0.00,,,0.01,,2013-01-13 07:12:00,
2013-01-13 02:22:00,56.0,55.0,30.08,North,0,0.0,0.0,98,0.00,,,0.01,,2013-01-13 07:22:00,
2013-01-13 02:32:00,56.0,55.0,30.09,North,0,0.0,0.0,98,0.00,,,0.01,,2013-01-13 07:32:00,
2013-01-13 02:42:00,56.0,55.0,30.09,North,0,0.0,0.0,98,0.00,,,0.01,,2013-01-13 07:42:00,
2013-01-13 02:53:00,56.0,55.0,30.09,North,0,0.0,0.0,98,0.00,,,0.01,,2013-01-13 07:53:00,
2013-01-13 03:02:00,57.0,56.0,30.09,North,0,0.0,0.0,98,0.00,,,0.01,,2013-01-13 08:02:00,
2013-01-13 03:12:00,57.0,56.0,30.09,North,0,0.0,0.0,98,0.00,,,0.01,,2013-01-13 08:12:00,
2013-01-13 03:22:00,57.0,56.0,30.09,North,0,0.0,0.0,98,0.00,,,0.01,,2013-01-13 08:22:00,
2013-01-13 03:32:00,57.0,56.0,30.09,North,0,0.0,0.0,98,0.00,,,0.01,,2013-01-13 08:32:00,
2013-01-13 03:42:00,57.0,56.0,30.09,North,0,0.0,0.0,98,0.00,,,0.01,,2013-01-13 08:42:00,
2013-01-13 04:02:00,56.0,55.0,30.07,North,0,0.0,0.0,98,0.00,,,0.01,,2013-01-13 09:02:00,
2013-01-13 04:12:00,56.0,55.0,30.07,North,0,0.0,2.0,98,0.00,,,0.01,,2013-01-13 09:12:00,
2013-01-13 04:22:00,56.0,55.0,30.07,North,0,0.0,2.0,98,0.00,,,0.01,,2013-01-13 09:22:00,
2013-01-13 04:32:00,56.0,55.0,30.07,North,0,0.0,2.0,98,0.00,,,0.01,,2013-01-13 09:32:00,
2013-01-13 04:42:00,56.0,55.0,30.07,North,0,0.0,2.0,98,0.00,,,0.01,,2013-01-13 09:42:00,
2013-01-13 04:52:00,56.0,55.0,30.06,North,0,0.0,2.0,98,0.00,,,0.01,,2013-01-13 09:52:00,
2013-01-13 05:03:00,56.0,55.0,30.06,North,0,0.0,0.0,98,0.00,,,0.01,,2013-01-13 10:03:00,
2013-01-13 05:12:00,56.0,55.0,30.06,North,0,0.0,0.0,98,0.00,,,0.01,,2013-01-13 10:12:00,
2013-01-13 05:22:00,56.0,55.0,30.06,North,0,0.0,2.0,98,0.00,,,0.01,,2013-01-13 10:22:00,
2013-01-13 05:32:00,56.0,55.0,30.06,North,0,0.0,0.0,98,0.00,,,0.01,,2013-01-13 10:32:00,
2013-01-13 05:42:00,56.0,55.0,30.06,North,0,0.0,0.0,98,0.00,,,0.01,,2013-01-13 10:42:00,
2013-01-13 05:52:00,56.0,55.0,30.06,North,0,0.0,0.0,98,0.00,,,0.01,,2013-01-13 10:52:00,
2013-01-13 06:02:00,56.0,55.0,30.06,North,0,0.0,0.0,98,0.00,,,0.01,,2013-01-13 11:02:00,
2013-01-13 06:33:00,55.0,54.0,30.07,North,0,0.0,1.0,98,0.00,,,0.01,,2013-01-13 11:33:00,
2013-01-13 06:43:00,55.0,54.0,30.07,North,0,0.0,1.0,98,0.00,,,0.01,,2013-01-13 11:43:00,
2013-01-13 06:53:00,55.0,54.0,30.07,North,0,0.0,0.0,98,0.00,,,0.01,,2013-01-13 11:53:00,
2013-01-13 07:03:00,55.0,54.0,30.07,North,0,0.0,0.0,98,0.00,,,0.01,,2013-01-13 12:03:00,
2013-01-13 07:12:00,55.0,54.0,30.07,North,0,0.0,0.0,98,0.00,,,0.01,,2013-01-13 12:12:00,
2013-01-13 07:22:00,55.0,54.0,30.08,North,0,0.0,0.0,98,0.00,,,0.01,,2013-01-13 12:22:00,
2013-01-13 07:33:00,55.0,54.0,30.08,North,0,0.0,0.0,98,0.00,,,0.01,,2013-01-13 12:33:00,
2013-01-13 07:42:00,55.0,54.0,30.08,North,0,0.0,0.0,98,0.00,,,0.01,,2013-01-13 12:42:00,
2013-01-13 07:52:00,55.0,54.0,30.09,North,0,0.0,0.0,98,0.00,,,0.01,,2013-01-13 12:52:00,
2013-01-13 08:03:00,55.0,54.0,30.09,North,0,0.0,0.0,98,0.00,,,0.01,,2013-01-13 13:03:00,
2013-01-13 08:12:00,55.0,54.0,30.09,North,0,0.0,0.0,98,0.00,,,0.01,,2013-01-13 13:12:00,
2013-01-13 08:22:00,55.0,54.0,30.09,North,0,0.0,0.0,98,0.00,,,0.01,,2013-01-13 13:22:00,
2013-01-13 08:33:00,55.0,54.0,30.09,North,0,0.0,0.0,98,0.00,,,0.01,,2013-01-13 13:33:00,
2013-01-13 08:42:00,55.0,54.0,30.09,North,0,0.0,0.0,98,0.00,,,0.01,,2013-01-13 13:42:00,
2013-01-13 08:53:00,55.0,54.0,30.10,SSE,148,2.0,4.0,98,0.00,,,0.01,,2013-01-13 13:53:00,
2013-01-13 09:03:00,55.0,54.0,30.10,SSE,148,2.0,4.0,98,0.00,,,0.01,,2013-01-13 14:03:00,
2013-01-13 09:12:00,55.0,54.0,30.10,SSE,148,2.0,4.0,98,0.00,,,0.01,,2013-01-13 14:12:00,
2013-01-13 09:22:00,56.0,55.0,30.10,SSE,166,3.0,5.0,98,0.00,,,0.01,,2013-01-13 14:22:00,
2013-01-13 09:33:00,56.0,55.0,30.10,SSE,166,3.0,5.0,98,0.00,,,0.01,,2013-01-13 14:33:00,
2013-01-13 09:43:00,56.0,55.0,30.10,SSE,166,3.0,5.0,98,0.00,,,0.01,,2013-01-13 14:43:00,
2013-01-13 09:52:00,57.0,56.0,30.11,SSE,167,3.0,7.0,98,0.00,,,0.01,,2013-01-13 14:52:00,
2013-01-13 10:03:00,57.0,56.0,30.11,SSE,167,3.0,7.0,98,0.00,,,0.01,,2013-01-13 15:03:00,
2013-01-13 10:13:00,57.0,56.0,30.11,SSE,167,3.0,7.0,98,0.00,,,0.01,,2013-01-13 15:13:00,
2013-01-13 10:23:00,58.0,58.0,30.11,North,0,0.0,3.0,99,0.00,,,0.01,,2013-01-13 15:23:00,
2013-01-13 10:33:00,59.0,59.0,30.11,North,0,0.0,3.0,99,0.00,,,0.01,,2013-01-13 15:33:00,
2013-01-13 10:43:00,59.0,59.0,30.11,North,0,0.0,3.0,99,0.00,,,0.01,,2013-01-13 15:43:00,
2013-01-13 10:52:00,61.0,61.0,30.11,North,0,0.0,0.0,99,0.00,,,0.01,,2013-01-13 15:52:00,
2013-01-13 11:03:00,62.0,62.0,30.10,North,0,0.0,3.0,99,0.00,,,0.01,,2013-01-13 16:03:00,
2013-01-13 11:10:00,65.0,63.0,30.08,South,189,2.0,8.0,92,0.00,,,0.01,,2013-01-13 16:10:00,
2013-01-13 11:12:00,62.0,62.0,30.10,North,0,0.0,3.0,99,0.00,,,0.01,,2013-01-13 16:12:00,
2013-01-13 11:23:00,63.0,63.0,30.09,North,0,0.0,3.0,99,0.00,,,0.01,,2013-01-13 16:23:00,
2013-01-13 11:33:00,65.0,63.0,30.08,South,189,2.0,8.0,92,0.00,,,0.01,,2013-01-13 16:33:00,
2013-01-13 11:43:00,65.0,63.0,30.08,South,189,2.0,8.0,92,0.00,,,0.01,,2013-01-13 16:43:00,
2013-01-13 11:53:00,65.0,63.0,30.08,South,189,2.0,8.0,92,0.00,,,0.01,,2013-01-13 16:53:00,
2013-01-13 12:03:00,65.0,63.0,30.08,South,189,2.0,8.0,92,0.00,,,0.01,,2013-01-13 17:03:00,
2013-01-13 12:10:00,72.0,63.0,30.05,SSE,167,2.0,6.0,73,0.00,,,0.00,,2013-01-13 17:10:00,
2013-01-13 12:22:00,71.0,63.0,30.05,SSE,156,3.0,9.0,75,0.00,,,0.00,,2013-01-13 17:22:00,
2013-01-13 12:33:00,72.0,63.0,30.05,SSE,167,2.0,6.0,73,0.00,,,0.00,,2013-01-13 17:33:00,
2013-01-13 12:43:00,72.0,63.0,30.05,SSE,167,2.0,6.0,73,0.00,,,0.00,,2013-01-13 17:43:00,
2013-01-13 12:53:00,72.0,63.0,30.05,SSE,167,2.0,6.0,73,0.00,,,0.00,,2013-01-13 17:53:00,
2013-01-13 13:03:00,72.0,63.0,30.05,SSE,167,2.0,6.0,73,0.00,,,0.00,,2013-01-13 18:03:00,
2013-01-13 13:23:00,73.0,63.0,30.03,SSE,147,1.0,9.0,70,0.00,,,0.00,,2013-01-13 18:23:00,
2013-01-13 13:33:00,73.0,62.0,30.03,SE,146,2.0,8.0,69,0.00,,,0.00,,2013-01-13 18:33:00,
2013-01-13 13:43:00,73.0,62.0,30.03,SE,146,2.0,8.0,69,0.00,,,0.00,,2013-01-13 18:43:00,
2013-01-13 13:53:00,74.0,62.0,30.02,South,174,2.0,10.0,67,0.00,,,0.00,,2013-01-13 18:53:00,
2013-01-13 14:03:00,74.0,62.0,30.02,South,170,3.0,7.0,67,0.00,,,0.00,,2013-01-13 19:03:00,
2013-01-13 14:12:00,74.0,62.0,30.02,South,170,3.0,7.0,67,0.00,,,0.00,,2013-01-13 19:12:00,
2013-01-13 14:22:00,74.0,62.0,30.02,South,170,3.0,7.0,67,0.00,,,0.00,,2013-01-13 19:22:00,
2013-01-13 14:33:00,73.0,62.0,30.02,SSE,158,2.0,8.0,68,0.00,,,0.00,,2013-01-13 19:33:00,
2013-01-13 14:43:00,73.0,62.0,30.02,SSE,158,2.0,8.0,68,0.00,,,0.00,,2013-01-13 19:43:00,
2013-01-13 14:53:00,73.0,62.0,30.02,SE,130,2.0,7.0,68,0.00,,,0.00,,2013-01-13 19:53:00,
2013-01-13 15:03:00,73.0,62.0,30.02,SE,130,2.0,7.0,68,0.00,,,0.00,,2013-01-13 20:03:00,
2013-01-13 15:12:00,73.0,62.0,30.02,SE,130,2.0,7.0,68,0.00,,,0.00,,2013-01-13 20:12:00,
2013-01-13 15:22:00,73.0,62.0,30.03,South,182,1.0,6.0,68,0.00,,,0.00,,2013-01-13 20:22:00,
2013-01-13 15:33:00,73.0,62.0,30.03,South,182,1.0,6.0,68,0.00,,,0.00,,2013-01-13 20:33:00,
2013-01-13 15:43:00,73.0,62.0,30.03,South,182,1.0,6.0,68,0.00,,,0.00,,2013-01-13 20:43:00,
2013-01-13 15:53:00,74.0,62.0,30.03,SSE,168,1.0,4.0,67,0.00,,,0.00,,2013-01-13 20:53:00,
2013-01-13 16:03:00,73.0,61.0,30.03,SSE,160,2.0,7.0,66,0.00,,,0.00,,2013-01-13 21:03:00,
2013-01-13 16:13:00,73.0,61.0,30.03,SSE,160,2.0,7.0,66,0.00,,,0.00,,2013-01-13 21:13:00,
2013-01-13 16:23:00,73.0,61.0,30.03,ESE,122,2.0,6.0,67,0.00,,,0.00,,2013-01-13 21:23:00,
2013-01-13 16:33:00,72.0,61.0,30.03,SE,141,2.0,5.0,68,0.00,,,0.00,,2013-01-13 21:33:00,
2013-01-13 16:43:00,72.0,61.0,30.03,SE,141,2.0,5.0,68,0.00,,,0.00,,2013-01-13 21:43:00,
2013-01-13 16:53:00,72.0,61.0,30.03,SE,141,2.0,5.0,68,0.00,,,0.00,,2013-01-13 21:53:00,
2013-01-13 17:02:00,72.0,61.0,30.03,SE,141,2.0,5.0,68,0.00,,,0.00,,2013-01-13 22:02:00,
2013-01-13 17:12:00,72.0,61.0,30.03,SE,141,2.0,5.0,68,0.00,,,0.00,,2013-01-13 22:12:00,
2013-01-13 17:23:00,70.0,62.0,30.04,North,0,0.0,3.0,76,0.00,,,0.00,,2013-01-13 22:23:00,
2013-01-13 17:33:00,70.0,62.0,30.04,North,0,0.0,3.0,76,0.00,,,0.00,,2013-01-13 22:33:00,
2013-01-13 17:43:00,70.0,62.0,30.04,North,0,0.0,3.0,76,0.00,,,0.00,,2013-01-13 22:43:00,
2013-01-13 17:53:00,70.0,62.0,30.04,North,0,0.0,3.0,76,0.00,,,0.00,,2013-01-13 22:53:00,
2013-01-13 18:02:00,66.0,61.0,30.04,North,0,0.0,0.0,83,0.00,,,0.00,,2013-01-13 23:02:00,
2013-01-13 18:12:00,66.0,61.0,30.04,North,0,0.0,0.0,83,0.00,,,0.00,,2013-01-13 23:12:00,
2013-01-13 18:23:00,64.0,60.0,30.03,North,0,0.0,0.0,88,0.00,,,0.00,,2013-01-13 23:23:00,
2013-01-13 18:33:00,63.0,60.0,30.03,North,0,0.0,0.0,89,0.00,,,0.00,,2013-01-13 23:33:00,
2013-01-13 18:42:00,63.0,60.0,30.03,North,0,0.0,0.0,89,0.00,,,0.00,,2013-01-13 23:42:00,
2013-01-13 18:53:00,62.0,59.0,30.03,North,0,0.0,0.0,90,0.00,,,0.00,,2013-01-13 23:53:00,
2013-01-13 19:03:00,61.0,59.0,30.03,North,0,0.0,0.0,92,0.00,,,0.00,,2013-01-14 00:03:00,
2013-01-13 19:12:00,61.0,59.0,30.03,North,0,0.0,0.0,92,0.00,,,0.00,,2013-01-14 00:12:00,
2013-01-13 19:22:00,61.0,59.0,30.03,North,0,0.0,0.0,92,0.00,,,0.00,,2013-01-14 00:22:00,
2013-01-13 19:33:00,60.0,58.0,30.03,North,0,0.0,0.0,93,0.00,,,0.00,,2013-01-14 00:33:00,
2013-01-13 19:43:00,60.0,58.0,30.03,North,0,0.0,0.0,93,0.00,,,0.00,,2013-01-14 00:43:00,
2013-01-13 19:53:00,59.0,57.0,30.03,North,0,0.0,0.0,94,0.00,,,0.00,,2013-01-14 00:53:00,
2013-01-13 20:03:00,59.0,58.0,30.03,North,0,0.0,0.0,95,0.00,,,0.00,,2013-01-14 01:03:00,
2013-01-13 20:12:00,59.0,58.0,30.03,North,0,0.0,0.0,95,0.00,,,0.00,,2013-01-14 01:12:00,
2013-01-13 20:22:00,59.0,58.0,30.03,North,0,0.0,0.0,95,0.00,,,0.00,,2013-01-14 01:22:00,
2013-01-13 20:33:00,58.0,57.0,30.03,North,0,0.0,3.0,95,0.00,,,0.00,,2013-01-14 01:33:00,
2013-01-13 20:42:00,58.0,57.0,30.03,North,0,0.0,3.0,95,0.00,,,0.00,,2013-01-14 01:42:00,
2013-01-13 20:53:00,58.0,57.0,30.03,North,0,0.0,0.0,95,0.00,,,0.00,,2013-01-14 01:53:00,
2013-01-13 21:03:00,58.0,57.0,30.03,North,0,0.0,0.0,95,0.00,,,0.00,,2013-01-14 02:03:00,
2013-01-13 21:12:00,58.0,57.0,30.03,North,0,0.0,0.0,95,0.00,,,0.00,,2013-01-14 02:12:00,
2013-01-13 21:22:00,58.0,57.0,30.03,North,0,0.0,0.0,95,0.00,,,0.00,,2013-01-14 02:22:00,
2013-01-13 21:33:00,58.0,57.0,30.03,North,0,0.0,0.0,95,0.00,,,0.00,,2013-01-14 02:33:00,
2013-01-13 21:42:00,58.0,57.0,30.03,North,0,0.0,0.0,95,0.00,,,0.00,,2013-01-14 02:42:00,
2013-01-13 21:53:00,57.0,56.0,30.02,North,0,0.0,0.0,95,0.00,,,0.00,,2013-01-14 02:53:00,
2013-01-13 22:03:00,58.0,57.0,30.03,North,0,0.0,2.0,98,0.00,,,0.00,,2013-01-14 03:03:00,
2013-01-13 22:12:00,58.0,57.0,30.03,North,0,0.0,2.0,98,0.00,,,0.00,,2013-01-14 03:12:00,
2013-01-13 22:22:00,60.0,59.0,30.04,North,0,0.0,2.0,96,0.00,,,0.00,,2013-01-14 03:22:00,
2013-01-13 22:33:00,61.0,60.0,30.04,North,0,0.0,4.0,95,0.00,,,0.00,,2013-01-14 03:33:00,
2013-01-13 22:42:00,61.0,60.0,30.04,North,0,0.0,4.0,95,0.00,,,0.00,,2013-01-14 03:42:00,
2013-01-13 22:53:00,61.0,59.0,30.04,North,0,0.0,3.0,92,0.00,,,0.00,,2013-01-14 03:53:00,
2013-01-13 23:02:00,63.0,60.0,30.04,South,182,2.0,6.0,90,0.00,,,0.00,,2013-01-14 04:02:00,
2013-01-13 23:12:00,63.0,60.0,30.04,South,182,2.0,6.0,90,0.00,,,0.00,,2013-01-14 04:12:00,
2013-01-13 23:22:00,64.0,60.0,30.04,SSE,160,2.0,7.0,86,0.00,,,0.00,,2013-01-14 04:22:00,
2013-01-13 23:32:00,64.0,60.0,30.04,SSE,160,2.0,7.0,86,0.00,,,0.00,,2013-01-14 04:32:00,
2013-01-13 23:42:00,64.0,60.0,30.04,SSE,160,2.0,7.0,86,0.00,,,0.00,,2013-01-14 04:42:00,
2013-01-13 23:53:00,65.0,60.0,30.05,SSE,160,2.0,6.0,85,0.00,,,0.00,,2013-01-14 04:53:00,